sat.trackr.live / text

‹ back to catalog

STARLINK-35031

NORAD 65404 · 2025-192A

PAYLOAD ACTIVE UNKNOWN

§ Identity

Operator
Country
US
Launch date
2025-08-31
Launch site
AFETR
Launch vehicle
Mass (kg)
RCS (m²)

Purposes: comms

External: N2YO · Heavens-Above · Gunter

§ Orbital elements

Epoch: 2026-05-24T18:19:33.349152Z

Period
93.85 min
Inclination
53.1583°
Eccentricity
0.0000871
Mean motion
15.34397657 rev/d
Perigee alt
462.1 km
Apogee alt
463.3 km
Semi-major
6,840.8 km
B*
1.0604e-3
RAAN
248.8004°
Arg perigee
87.9334°
Mean anomaly
272.1768°
Rev number
4,089

§ Raw data

STARLINK-350311 65404U 25192A   26144.76358043  .00035619  00000+0  10604-2 0  99972 65404  53.1583 248.8004 0000871  87.9334 272.1768 15.34397657 40896

JSON: /api/v1/satellites/65404 · /tle

For live sub-satellite position, see the globe view (requires WebGL).

§ Visibility from observer

Set your observer location to see the next 7 days of passes ≥ 10°. The values pass through the URL so the page stays shareable.

No JS? Fill the form by hand. The geolocation button needs JavaScript.